Regional Weather Roundup
Issued by NWS State College, PA

Home | Current Version | Previous Version | Graphics & Text | Print | Product List | Glossary Off
Versions: 1 2 3 4 5 6 7 8 9 10 11 12 13 14 15 16 17 18 19 20 21 22 23 24 25 26 27 28 29 30 31 32 33 34 35 36 37 38 39 40 41 42 43 44 45 46 47 48 49 50

000
ASUS41 KCTP 310410
RWRCTP

REGIONAL WEATHER ROUNDUP
NATIONAL WEATHER SERVICE STATE COLLEGE PA
1100 PM EST FRI JAN 30 2015

Note: "fair" indicates few or no clouds below 12,000 feet with no
significant weather and/or obstructions to visibility.

* = STATION THAT DOES NOT REPORT PRECIPITATION /E.G. RAIN...SNOW...ETC/
    THUNDER OR FOG.

PAZ002>004-007>009-013>016-020>023-029>032-310500-
WESTERN PENNSYLVANIA

CITY           SKY/WX    TMP DP  RH WIND       PRES   REMARKS
ERIE           LGT SNOW  15  10  80 NW8       30.39F WCI   4
MEADVILLE      CLOUDY    11   6  81 W8        30.32F WCI  -1
FRANKLIN*      CLOUDY    10   5  79 W8        30.32S WCI  -1
NEW CASTLE     FAIR      10   3  73 CALM      30.40S
BEAVER COUNTY  NOT AVBL
BUTLER*        MOCLDY    12   9  85 SW5       30.36F WCI   4
PITTSBURGH INT PTCLDY    12   5  73 W5        30.37F WCI   4
PITTSBURGH     LGT SNOW  12   4  70 W3        30.36S
INDIANA*       CLOUDY    14   7  73 W9G16     30.34S WCI   2
LATROBE        FLURRIES  14   5  67 W8        30.38S WCI   3
WASHINGTON CO* MOCLDY    12   5  73 CALM      30.39S
$$

PAZ004>006-010>012-017>019-024>028-033>037-041-042-045-046-049>053-310500-
CENTRAL PENNSYLVANIA

CITY           SKY/WX    TMP DP  RH WIND       PRES   REMARKS
BRADFORD       MOCLDY     2  -4  76 NW21G28   30.19S BLWGSNOWWCI -20
DUBOIS         CLOUDY     7   1  76 NW10G20   30.24R WCI  -8
CLEARFIELD     CLOUDY     8  -1  66 NW8       30.25R WCI  -4
JOHNSTOWN      LGT SNOW   8   3  80 W15G28    30.18S WCI  -9
ALTOONA        MOCLDY    23   2  40 NW12G25   30.24S WCI  12
STATE COLLEGE  MOCLDY    10   0  64 NW5       30.25R WCI   2
WILLIAMSPORT   CLEAR     12  -2  53 W13       30.25S WCI  -3
SELINSGROVE    CLEAR     14   0  53 NW8       30.26R WCI   3
FT INDIANTOWN  CLEAR     16   0  49 W14G25    30.21R WCI   1
CAPITAL CITY   CLEAR     17   1  49 NW17G33   30.24R WCI   1
HARRISBURG     PTCLDY    16   2  54 NW18      30.23R WCI   0
YORK           CLEAR     17   2  51 NW15G28   30.22R WCI   2
$$

PAZ038>040-043-044-047-048-054-055-060>062-067>071-310500-
EASTERN PENNSYLVANIA

CITY           SKY/WX    TMP DP  RH WIND       PRES   REMARKS
SCRANTON       FLURRIES  13   1  59 NW14G25   30.13S WCI  -2
MOUNT POCONO   MIX PCPN   8  -1  66 NW25G36   29.96R WCI -13
ALLENTOWN      MOCLDY    17   2  51 NW14      30.13R WCI   3
QUAKERTOWN*    PTCLDY    18   1  49 NW12G25   30.12R WCI   5
READING        CLEAR     16   3  56 NW23G30   30.17R WCI  -2
LANCASTER      CLEAR     17   2  51 NW14G26   30.19R WCI   3
COATESVILLE    CLEAR     19   7  58 NW21G29   30.13R WCI   3
POTTSTOWN      CLEAR     17   2  51 NW16G26   30.15R WCI   2
BLUE BELL      CLEAR     21   5  49 NW6G22    30.11R WCI  14
DOYLESTOWN     PTCLDY    17   4  56 NW17G33   30.09R WCI   1
WILLOW GROVE   NOT AVBL
NORTH PHILA    CLEAR     22   5  48 NW15G24   30.12R WCI   9
PHILADELPHIA   CLEAR     23   3  42 NW22G33   30.14R WCI   8
$$



USA.gov is the U.S. government's official web portal to all federal, state and local government web resources and services.